This demonstration page uses our WeatherBlox Daily Observations layout. Learn more.

Left ArrowRight Arrow

34.16533, -84.80231

Hourly Observations for February 2, 2015

Temp ( °F °C ) Dew Point ( °F °C ) Humidity (%) Winds ( mph kmh ) Pressure ( in mb ) Visibility ( mi km ) Precip ( " mm )
12:53 am 00:53 Cloudy 57 13.9 53 11.7 87 87 VRB 5 7 29.70 1006 10 16 0.01 0.25
1:53 am 01:53 Cloudy 57 13.9 54 12.2 90 90 SSW 6 9 29.69 1005 10 16 0.00 0.03
2:53 am 02:53 Cloudy 51 10.6 47 8.3 86 86 VRB 3 6 29.72 1007 10 16 0.04 1.02
3:24 am 03:24 Cloudy 50 10 46 7.8 86 86 Calm 29.77 1008 10 16 0.00 0.00
3:53 am 03:53 Cloudy 50 10 46 7.8 86 86 Calm 29.74 1007 10 16 0.00 0.00
4:37 am 04:37 Cloudy 50 10 44 6.7 80 80 VRB 3 6 29.80 1009 10 16 0.00 0.00
4:53 am 04:53 Cloudy 49 9.4 43 6.1 80 80 Calm 29.75 1007 10 16 0.00 0.00
5:06 am 05:06 Cloudy 49 9.4 43 6.1 80 80 VRB 5 7 29.80 1009 10 16 0.00 0.00
5:53 am 05:53 Cloudy 46 7.8 39 3.9 77 77 undefined N/A 29.79 1009 10 16 0.00 0.00
6:30 am 06:30 Cloudy 43 6.1 36 2.2 76 76 VRB 7 11 29.85 1011 10 16 0.00 0.00
6:53 am 06:53 Cloudy 43 6.1 33 0.6 68 68 VRB 5 7 29.84 1010 10 16 0.00 0.00
7:53 am 07:53 Cloudy 41 5 30 -1.1 65 65 NW 8 13 29.88 1012 10 16 0.00 0.00
8:53 am 08:53 Cloudy 40 4.4 30 -1.1 68 68 VRB 3 6 29.93 1014 10 16 0.00 0.00
9:38 am 09:38 Cloudy 39 3.9 31 -0.6 73 73 undefined N/A 30.00 1016 10 16 0.00 0.00
9:50 am 09:50 Cloudy 39 4 30 -1 70 70 VRB 3 6 30.00 1016 10 16 0.00 0.00
9:53 am 09:53 Cloudy 40 4.4 30 -1.1 68 68 undefined N/A 29.97 1015 10 16 0.00 0.00
10:08 am 10:08 Cloudy 39 3.9 30 -1.1 70 70 VRB 5 7 30.03 1017 10 16 0.00 0.00
10:30 am 10:30 Mostly Cloudy 42 5.6 30 -1.1 62 62 VRB 7 11 30.03 1017 10 16 0.00 0.00
10:53 am 10:53 Cloudy 39 3.9 27 -2.8 62 62 VRB 6 9 30.02 1017 10 16 0.00 0.00
11:53 am 11:53 Cloudy 39 3.9 26 -3.3 60 60 VRB 7 11 30.06 1018 10 16 0.00 0.00
12:53 pm 12:53 Cloudy 38 3.3 26 -3.3 62 62 VRB 6 9 30.08 1019 10 16 0.00 0.00
1:09 pm 13:09 Cloudy 37 2.8 26 -3.3 65 65 undefined N/A 30.12 1020 10 16 0.00 0.00
1:53 pm 13:53 Cloudy 37 2.8 24 -4.4 59 59 NNW 6 9 30.10 1019 10 16 0.00 0.00
2:53 pm 14:53 Cloudy 37 2.8 23 -5 57 57 VRB 3 6 30.10 1019 10 16 0.00 0.00
3:53 pm 15:53 Mostly Cloudy 38 3.3 21 -6.1 51 51 VRB 6 9 30.12 1020 10 16 0.00 0.00
4:53 pm 16:53 Mostly Cloudy 37 2.8 20 -6.7 50 50 NNW 8 13 30.15 1021 10 16 0.00 0.00
5:53 pm 17:53 Sunny 34 1.1 19 -7.2 54 54 NNW 8 13 30.18 1022 10 16 0.00 0.00
6:53 pm 18:53 Clear 32 0 19 -7.2 59 59 NNW 7 11 30.21 1023 10 16 0.00 0.00
7:53 pm 19:53 Clear 30 -1.1 18 -7.8 61 61 N 9 15 30.24 1024 10 16 0.00 0.00
8:53 pm 20:53 Clear 28 -2.2 18 -7.8 66 66 VRB 5 7 30.26 1025 10 16 0.00 0.00
9:53 pm 21:53 Clear 28 -2.2 17 -8.3 63 63 N 6 9 30.26 1025 10 16 0.00 0.00
10:53 pm 22:53 Clear 27 -2.8 17 -8.3 66 66 N 5 7 30.26 1025 10 16 0.00 0.00
11:53 pm 23:53 Clear 25 -3.9 18 -7.8 75 75 Calm 30.29 1026 10 16 0.00 0.00

Powered by AerisWeather